COSMOS 2499 DEB, 49924

Orbit data source: Space-Track

COSMOS 2499 DEB, 49924 is space debris in LEO originally from a launch on Fri, 23 May 2014 UTC launched from the Plesetsk Missile And Space Complex (PKMTR). Debris objects in space refer to the collection of defunct objects orbiting the Earth. Examples of debris include non-operational satellites, rocket bodies, and fragments generated from explosions, collisions, or faulty payload assembly.

Loading next visibility...
Identifier
49924, 2014-028F
Orbit
LEO
Country
Flag of CISCIS
Related business
Manufacturer
TsNIIKhM
Mission
Spacecraft
Bus & Motor
Unknown
Mass
Unknown
Launch date (UTC)
2014-05-23 (12 years ago)
Launch vehicle
Unknown
Launch site
Plesetsk Missile And Space Complex (PKMTR)
Object type
Payload
Rocket body
Debris
Shape & HBR
Unknown shape, 0.1 m
Radar Cross Section
Small (<0.1 m²)

Expand to show TLE details & history
Last TLE update: 18 hours ago

TLE from 18 hours ago
0 COSMOS 2499 DEB
1 49924U 14028F   25349.78353184  .00001334  00000-0  40655-2 0  9998
2 49924  82.5108   7.5508 0242909 357.5264   2.4625 12.96056110194528
Epoch: 2025-12-15T18:48Z
TLE epoch observation values (Epoch: 2025-12-15T18:48:17.150Z)
Latitude
-0.0001°
Longitude
0.80219°
Altitude
1,094.543 km
Speed
7.393 km/s
True Right ascension
00h 30m 12s
True Declination
0° 00' 00"
Sunlit
Object was in daylight at epoch
Visualization orbit readout
Latitude
Unknown
Longitude
Unknown
Altitude
Unknown
Speed
Unknown
Apparent Right ascension
Unknown
Apparent Declination
Unknown
Sunlit
N/A
Visualization observer readout
Local Sidereal Time
11:10:52
Azimuth
Unknown
Elevation
Unknown
Doppler factor
Unknown
Orbital elements
Apogee altitude
1,460.753 km
Perigee altitude
1,088.957 km
Semi-major axis
7,652.992 km
Eccentricity
0.02429
Inclination
82.5108°
RAAN
7.5508°
Arg. of periapsis
357.5264°
True anomaly
2.58583°
Mean anomaly
2.4625°
Eccentric anomaly
2.52379°
Mean motion
3.24188 °/min
Orbital period
111.05 mins
BSTAR
0.0040655
Loading maneuver chart data...
Computing Atmospheric mass density...
Loading historical data...
Loading historical data...
Loading historical data...
Loading historical data...
Loading historical data...
Loading historical data...
Loading historical data...

Documentation

Showing up to 5 results
|